Regional Weather Roundup
Issued by NWS Charleston, SC

Current Version | Previous Version | Graphics & Text | Print | Product List | Glossary On
Versions: 1 2 3 4 5 6 7 8 9 10 11 12 13 14 15 16 17 18 19 20 21 22 23 24 25 26 27 28 29 30 31 32 33 34 35 36 37 38 39 40 41 42 43 44 45 46 47 48 49 50
000 ASUS42 KCHS 270812 RWRCHS REGIONAL WEATHER ROUNDUP NATIONAL WEATHER SERVICE CHARLESTON SC 400 AM EDT SAT MAY 27 2017 NOTE: "FAIR" INDICATES FEW OR NO CLOUDS BELOW 12,000 FEET WITH NO SIGNIFICANT WEATHER AND/OR OBSTRUCTIONS TO VISIBILITY. NOT ALL STATIONS ARE QUALITY CONTROLLED. USE DATA WITH CAUTION... ESPECIALLY DEWPOINT OBSERVATIONS. SCZ027-030-031-034>040-042>050-270900- ...SOUTHEAST SOUTH CAROLINA... CITY SKY/WX TMP DP RH WIND PRES REMARKS N CHARLESTON PTCLDY 66 59 78 SW5 30.00F WATERFRONT PRK N/A 71 65 81 VRB2 29.99S JOHNS ISLAND FAIR 66 63 88 W3 30.01S PINOPOLIS N/A 72 63 73 SW6 29.91F MONCKS CORNER FAIR 61 57 88 CALM 30.00S SUMMERVILLE FAIR 61 59 94 S3 30.01F BEAUFORT MCAS CLEAR 65 61 87 CALM 30.01S BEAUFORT ARPT NOT AVBL HILTON HEAD IS NOT AVBL WALTERBORO PTSUNNY 61 59 94 CALM 30.02S ALLENDALE FAIR 64 61 88 CALM 30.00F ...SOUTHERN MIDLANDS AND PEE DEE... CITY SKY/WX TMP DP RH WIND PRES REMARKS GEORGETOWN FAIR 61 59 94 SW3 30.01S KINGSTREE FAIR 59 57 94 CALM 29.99F ORANGEBURG PTCLDY 62 60 93 S3 30.00F BARNWELL FAIR 64 63 94 CALM 30.02S AIKEN FAIR 63 59 88 CALM 30.05S MANNING NOT AVBL COLUMBIA CLEAR 67 59 75 W3 29.98F SUMTER CLEAR 65 59 82 CALM 29.96F FLORENCE CLEAR 63 59 87 SW5 29.98F MYRTLE BEACH NOT AVBL N MYRTLE BEACH CLEAR 67 59 75 W5 29.98S $$ GAZ063-065-086>088-099>101-113>116-118-119-134>141-150-270900- ...SOUTHEAST GEORGIA... CITY SKY/WX TMP DP RH WIND PRES REMARKS SAVANNAH ARPT CLEAR 66 58 75 CALM 30.02S HUNTER AAF CLEAR 64 64 97 CALM 30.00S FORT STEWART CLEAR 61 58 90 CALM 30.00S STATESBORO PTCLDY 63 63 100 CALM 30.02F SYLVANIA MOSUNNY 64 63 99 CALM 30.03S CLAXTON FAIR N/A N/A N/A CALM 30.02S ...CSRA...CENTRAL AND FAR SOUTHEAST GEORGIA... CITY SKY/WX TMP DP RH WIND PRES REMARKS THOMSON N/A 63 61 94 CALM 30.07S FOG AUGUSTA-BUSH CLEAR 63 61 93 CALM 30.01S AUGUSTA-DANIEL CLEAR 73 58 59 CALM 30.02S SWAINSBORO FAIR 61 61 100 CALM 30.04R VIDALIA PTCLDY 66 63 88 CALM 30.03S EASTMAN FAIR 61 61 100 CALM 30.05S FOG HAZLEHURST FAIR 65 64 94 CALM 30.02S ALMA PTCLDY 61 59 93 CALM 30.03R WAYCROSS CLEAR 65 64 94 W3 30.04R JESUP FAIR 59 55 88 CALM 30.03S BAXLEY FAIR 63 63 100 CALM 30.03R BRUNSWICK FOG 63 63 100 SW3 30.03S VSB 1/4 SAINT SIMONS CLEAR 69 65 86 W7 30.02S $$ SCZ027-028-034-036>038-045-046-048>050-GAZ119-141-270900- ...LAKE AND SUPPLEMENTAL COASTAL OBSERVATIONS... STATION/POSITION TIME TEMP WIND PRES WAVE SWELL AIR SEA DIR/SP/G HT/PER HT/PER/DIR (UTC) (F) (DEG/KT/KT) (MB) (FT/S) (FT/S/D) WINYAH BAY 0645 69 270/ 4 1016.0 LAKE MURRAY 0720 73 250/ 8/ 11 1014.6F ACE BASIN NERRS NOT AVBL FORT PULASKI 0748 72 250/ 2/ 2 1016.8R SAPELO ISLAND 0700 69 CALM 1017.0 $$ ANZ835-935-AMZ111-154-330-350-352-354-370-450-454-472-270900- ...C-MAN AND BUOY OBSERVATIONS... STATION/POSITION TIME TEMP WIND PRES WAVE SWELL AIR SEA DIR/SP/G HT/PER HT/PER/DIR (UTC) (F) (DEG/KT/KT) (MB) (FT/S) (FT/S/D) BUOY 41004 0750 74 74 240/ 10/ 12 1015.8F 3/ 4 2/130/ 8 BUOY 41008 0650 76 77 200/ 12/ 16 1016.5 2/ 4 2/110/ 8 FOLLY BEACH CMAN 0700 73 240/ 4/ 6 1016.6F CAPERS NEARSHORE 0708 80 76 240/ 12/ 16 1015.9F FRIPP NEARSHORE 0708 77 76 270/ 8/ 10 1016.0R STATION/POSITION TIME TEMP WIND PRES WAVE SWELL AIR SEA DIR/SP/G HT/PER HT/PER/DIR (UTC) (F) (DEG/KT/KT) (MB) (FT/S) (FT/S/D) 5E ST. MARYS GA 0730 78 N/A 2/ 4 FRYING PAN BUOY 0750 74 74 250/ 14/ 17 1015.3F 3/ 5 BUOY 41025 0750 75 77 250/ 12/ 12 1014.0F 5/ 7 5/210/ 7 CAPE LOOKOUT NC 0700 72 250/ 6/ 7 1014.4F BUOY 41002 0750 76 77 280/ 12/ 14 1016.2F 5/ 7 3/180/ 7 BUOY 41010 0750 77 79 220/ 4/ 6 1017.3S 2/ 8 2/ 90/ 8 ST AUGUSTINE FL 0800 67 76 210/ 3/ 4 1018.0F $$

USA.gov is the U.S. government's official web portal to all federal, state and local government web resources and services.